GW5597 Weather Reports


time (UTC)temp
C
wind
direction
speed
KPH
gust
KPH
rain 1hr
cm
rain 24hr
cm
rain mn
cm
humidity
%
barometer
mb
20260508024348 20 345 0.0 3.2 0.00 0.00 0.00 45 1015.1
20260508023849 20 0 0.0 3.2 0.00 0.00 0.00 46 1015.1
20260508023348 20 307 0.0 3.2 0.00 0.00 0.00 47 1015.2
20260508022848 20 0 0.0 3.2 0.00 0.00 0.00 47 1015.2
20260508022348 20 0 0.0 3.2 0.00 0.00 0.00 47 1015.2
20260508021845 20 0 0.0 3.2 0.00 0.00 0.00 44 1015.2
20260508021605 20 86 0.0 3.2 0.00 0.00 0.00 41 1015.1
20260508021108 20 0 0.0 1.6 0.00 0.00 0.00 41 1015.2
20260508020346 21 67 0.0 3.2 0.00 0.00 0.00 42 1015.2
20260508015845 21 125 1.6 3.2 0.00 0.00 0.00 40 1015.3
20260508015346 21 324 1.6 4.8 0.00 0.00 0.00 40 1015.4
20260508015110 21 302 1.6 4.8 0.00 0.00 0.00 40 1015.4
20260508014345 21 22 1.6 3.2 0.00 0.00 0.00 39 1015.4
20260508013841 21 305 1.6 4.8 0.00 0.00 0.00 39 1015.5
20260508013341 21 0 1.6 4.8 0.00 0.00 0.00 39 1015.5
20260508012838 21 89 1.6 4.8 0.00 0.00 0.00 39 1015.5
20260508012821 21 76 1.6 4.8 0.00 0.00 0.00 39 1015.5
20260508011838 21 79 1.6 4.8 0.00 0.00 0.00 39 1015.5
20260508011339 21 329 1.6 4.8 0.00 0.00 0.00 38 1015.5
20260508010838 21 33 1.6 4.8 0.00 0.00 0.00 38 1015.6
20260508010338 21 34 1.6 6.4 0.00 0.00 0.00 38 1015.7
20260508005837 21 0 1.6 6.4 0.00 0.00 0.00 37 1015.8
20260508005338 21 53 1.6 4.8 0.00 0.00 0.00 38 1015.8
20260508005056 21 1 1.6 6.4 0.00 0.00 0.00 38 1015.9
20260508004339 21 0 1.6 6.4 0.00 0.00 0.00 37 1015.8
20260508004059 21 49 3.2 6.4 0.00 0.00 0.00 37 1015.9
20260508003340 21 331 3.2 6.4 0.00 0.00 0.00 38 1016.0
20260508002840 21 34 3.2 6.4 0.00 0.00 0.00 38 1016.0
20260508002340 21 303 3.2 6.4 0.00 0.00 0.00 37 1015.9
20260508001842 21 324 3.2 6.4 0.00 0.00 0.00 40 1016.0
20260508001342 21 321 3.2 8.0 0.00 0.00 0.00 38 1016.0
20260508000343 21 345 3.2 6.4 0.00 0.00 0.00 38 1016.1
20260507234340 21 334 1.6 4.8 0.00 0.00 0.00 40 1016.2
20260507233841 21 321 1.6 4.8 0.00 0.00 0.00 39 1016.2
20260507233335 21 255 1.6 4.8 0.00 0.00 0.00 41 1016.3
20260507233058 21 65 3.2 4.8 0.00 0.00 0.00 41 1016.4
20260507232331 21 358 1.6 4.8 0.00 0.00 0.00 41 1016.4
20260507231831 21 339 1.6 4.8 0.00 0.00 0.00 41 1016.4
20260507231330 21 278 1.6 4.8 0.00 0.00 0.00 44 1016.5
20260507230831 20 15 1.6 8.0 0.00 0.00 0.00 46 1016.6
20260507230332 20 38 3.2 8.0 0.00 0.00 0.00 44 1016.6
20260507230101 20 76 3.2 6.4 0.00 0.00 0.00 46 1016.7
20260507224831 20 179 3.2 6.4 0.00 0.00 0.00 46 1016.9
20260507224328 20 338 3.2 6.4 0.00 0.00 0.00 45 1016.9
20260507223828 20 332 3.2 8.0 0.00 0.00 0.00 46 1016.9
20260507223329 21 313 3.2 8.0 0.00 0.00 0.00 44 1016.9
20260507222828 21 347 3.2 8.0 0.00 0.00 0.00 42 1017.0
20260507222328 21 327 3.2 6.4 0.00 0.00 0.00 45 1017.1
20260507221828 21 20 3.2 6.4 0.00 0.00 0.00 46 1017.2
20260507221329 21 48 1.6 6.4 0.00 0.00 0.00 47 1017.2
20260507220829 21 3 1.6 6.4 0.00 0.00 0.00 47 1017.3
20260507220546 21 0 3.2 6.4 0.00 0.00 0.00 46 1017.3
20260507215829 21 128 3.2 6.4 0.00 0.00 0.00 44 1017.4
20260507215329 21 226 1.6 4.8 0.00 0.00 0.00 44 1017.5
20260507214827 21 197 1.6 4.8 0.00 0.00 0.00 43 1017.6
20260507214327 20 292 3.2 6.4 0.00 0.00 0.00 42 1017.6
20260507213827 20 332 3.2 6.4 0.00 0.00 0.00 43 1017.6
20260507213326 20 319 1.6 4.8 0.00 0.00 0.00 43 1017.7
20260507212827 20 274 1.6 9.7 0.00 0.00 0.00 42 1017.7
20260507212327 20 290 1.6 9.7 0.00 0.00 0.00 44 1017.8
20260507211827 20 204 1.6 4.8 0.00 0.00 0.00 42 1017.9
20260507211327 20 144 1.6 6.4 0.00 0.00 0.00 45 1017.9
20260507210827 20 333 3.2 6.4 0.00 0.00 0.00 44 1018.0
20260507210817 20 326 3.2 6.4 0.00 0.00 0.00 45 1018.1
20260507205827 20 318 1.6 6.4 0.00 0.00 0.00 43 1018.1
20260507205326 20 259 1.6 4.8 0.00 0.00 0.00 42 1018.2
20260507205047 20 151 1.6 4.8 0.00 0.00 0.00 44 1018.3
20260507204325 19 317 1.6 4.8 0.00 0.00 0.00 47 1018.3
20260507203821 20 293 1.6 4.8 0.00 0.00 0.00 47 1018.3
20260507203322 19 197 1.6 4.8 0.00 0.00 0.00 47 1018.4
20260507203039 19 290 1.6 4.8 0.00 0.00 0.00 48 1018.5
20260507202322 19 358 1.6 8.0 0.00 0.00 0.00 44 1018.6
20260507201822 19 203 3.2 9.7 0.00 0.00 0.00 45 1018.6
20260507201322 19 23 1.6 9.7 0.00 0.00 0.00 47 1018.7
20260507201057 19 72 1.6 8.0 0.00 0.00 0.00 47 1018.8
20260507200322 18 64 3.2 8.0 0.00 0.00 0.00 49 1018.8
20260507200041 18 198 3.2 8.0 0.00 0.00 0.00 51 1018.8
20260507195320 18 340 3.2 8.0 0.00 0.00 0.00 50 1018.8
20260507194820 18 292 3.2 9.7 0.00 0.00 0.00 49 1018.9
20260507194319 17 172 3.2 9.7 0.00 0.00 0.00 53 1019.1
20260507194308 17 106 1.6 6.4 0.00 0.00 0.00 54 1019.1
20260507193319 17 2 3.2 9.7 0.00 0.00 0.00 53 1019.1
20260507192819 17 46 3.2 9.7 0.00 0.00 0.00 54 1019.2
20260507192319 17 339 3.2 6.4 0.00 0.00 0.00 55 1019.3
20260507191820 17 172 1.6 4.8 0.00 0.00 0.00 55 1019.4
20260507191321 16 67 3.2 6.4 0.00 0.00 0.00 56 1019.4
20260507190819 16 295 3.2 6.4 0.00 0.00 0.00 57 1019.4
20260507190320 16 66 3.2 4.8 0.00 0.00 0.00 58 1019.4
20260507190047 16 46 3.2 6.4 0.00 0.00 0.00 59 1019.5
20260507185547 16 185 1.6 6.4 0.00 0.00 0.00 59 1019.6
20260507184824 16 316 3.2 4.8 0.00 0.00 0.00 58 1019.7
20260507184310 15 104 3.2 6.4 0.00 0.00 0.00 59 1019.7
20260507183809 15 348 4.8 6.4 0.00 0.00 0.00 61 1019.7
20260507183310 15 62 3.2 6.4 0.00 0.00 0.00 62 1019.7
20260507182809 15 332 1.6 4.8 0.00 0.00 0.00 62 1019.7
20260507182310 15 98 3.2 4.8 0.00 0.00 0.00 63 1019.8
20260507181808 14 78 3.2 4.8 0.00 0.00 0.00 64 1019.8
20260507181308 15 295 3.2 4.8 0.00 0.00 0.00 64 1019.9
20260507180809 14 326 3.2 4.8 0.00 0.00 0.00 64 1019.9
20260507180309 14 347 3.2 6.4 0.00 0.00 0.00 63 1020.0
20260507175808 14 82 3.2 6.4 0.00 0.00 0.00 66 1020.0
20260507175309 14 292 3.2 6.4 0.00 0.00 0.00 65 1020.0
20260507174752 13 351 3.2 6.4 0.00 0.00 0.00 66 1020.0
20260507174251 13 301 3.2 4.8 0.00 0.00 0.00 65 1020.1
20260507173751 13 328 3.2 6.4 0.00 0.00 0.00 67 1020.1
20260507173520 13 334 3.2 6.4 0.00 0.00 0.00 67 1020.1
20260507172752 13 294 3.2 6.4 0.00 0.00 0.00 68 1020.2
20260507172251 13 299 3.2 4.8 0.00 0.00 0.00 68 1020.2
20260507171752 13 303 3.2 4.8 0.00 0.00 0.00 69 1020.2
20260507171252 13 323 3.2 4.8 0.00 0.00 0.00 68 1020.2
20260507170752 13 298 3.2 6.4 0.00 0.00 0.00 69 1020.2
20260507165737 12 319 1.6 4.8 0.00 0.00 0.00 70 1020.3
20260507165237 12 294 1.6 4.8 0.00 0.00 0.00 71 1020.2
20260507164737 12 351 1.6 3.2 0.00 0.00 0.00 70 1020.3
20260507164457 12 3 1.6 3.2 0.00 0.00 0.00 72 1020.4
20260507163738 12 330 1.6 4.8 0.00 0.00 0.00 71 1020.4
20260507163238 11 112 3.2 4.8 0.00 0.00 0.00 72 1020.4
20260507162739 11 93 3.2 6.4 0.00 0.00 0.00 73 1020.4
20260507162237 11 304 3.2 6.4 0.00 0.00 0.00 72 1020.4
20260507162003 11 42 3.2 4.8 0.00 0.00 0.00 73 1020.4
20260507161238 11 332 3.2 4.8 0.00 0.00 0.00 73 1020.4
20260507160738 11 313 3.2 4.8 0.00 0.00 0.00 73 1020.4
20260507160239 11 302 3.2 6.4 0.00 0.00 0.00 73 1020.4
20260507155738 11 326 3.2 6.4 0.00 0.00 0.00 74 1020.4
20260507155445 11 312 1.6 4.8 0.00 0.00 0.00 73 1020.4
20260507154724 11 3 1.6 4.8 0.00 0.00 0.00 74 1020.4
20260507154224 11 303 3.2 4.8 0.00 0.00 0.00 74 1020.4
20260507153724 11 312 3.2 6.4 0.00 0.00 0.00 74 1020.5
20260507153224 11 312 3.2 6.4 0.00 0.00 0.00 74 1020.4
20260507152724 11 316 3.2 6.4 0.00 0.00 0.00 75 1020.5
20260507152452 11 306 3.2 6.4 0.00 0.00 0.00 74 1020.4
20260507151949 11 42 3.2 6.4 0.00 0.00 0.00 75 1020.4
20260507151441 11 334 3.2 6.4 0.00 0.00 0.00 74 1020.4
20260507150709 11 57 3.2 6.4 0.00 0.00 0.00 74 1020.4
20260507150209 11 8 3.2 6.4 0.00 0.00 0.00 74 1020.4
20260507145709 11 290 1.6 6.4 0.00 0.00 0.00 75 1020.4
20260507145432 11 310 1.6 4.8 0.00 0.00 0.00 75 1020.4
20260507144709 11 322 1.6 4.8 0.00 0.00 0.00 75 1020.4
20260507144213 11 76 1.6 4.8 0.00 0.00 0.00 76 1020.3
20260507143708 11 6 3.2 4.8 0.00 0.00 0.00 75 1020.3
20260507143209 11 321 3.2 4.8 0.00 0.00 0.00 75 1020.3
20260507142708 11 303 3.2 6.4 0.00 0.00 0.00 75 1020.2
20260507142209 11 355 3.2 6.4 0.00 0.00 0.00 76 1020.3
20260507141708 11 47 1.6 4.8 0.00 0.00 0.00 76 1020.2
20260507141213 11 11 1.6 4.8 0.00 0.00 0.00 77 1020.2
20260507140940 11 67 3.2 4.8 0.00 0.00 0.00 77 1020.2
20260507140155 11 77 1.6 3.2 0.00 0.00 0.00 77 1020.1
20260507135656 11 66 1.6 3.2 0.00 0.00 0.00 77 1020.1
20260507135156 11 0 1.6 3.2 0.00 0.00 0.00 78 1020.0
20260507134908 11 60 1.6 3.2 0.00 0.00 0.00 77 1020.0
20260507134145 11 329 1.6 3.2 0.00 0.00 0.00 77 1020.0
20260507133630 11 289 1.6 3.2 0.00 0.00 0.00 77 1020.0
20260507133113 11 344 1.6 3.2 0.00 0.00 0.00 78 1019.9
20260507132612 11 0 1.6 3.2 0.00 0.00 0.00 78 1019.9
20260507132112 11 23 1.6 3.2 0.00 0.00 0.00 78 1019.9
20260507132054 11 68 1.6 3.2 0.00 0.00 0.00 78 1019.9
20260507131113 11 303 1.6 3.2 0.00 0.00 0.00 77 1019.9
20260507130610 11 328 1.6 3.2 0.00 0.00 0.00 77 1019.9
20260507130333 11 0 1.6 3.2 0.00 0.00 0.00 77 1019.9
20260507125557 11 76 0.0 3.2 0.00 0.00 0.00 78 1019.9
20260507125042 11 288 1.6 3.2 0.00 0.00 0.00 77 1020.0
20260507124542 11 319 1.6 3.2 0.00 0.00 0.00 77 1020.0
20260507124041 11 6 1.6 3.2 0.00 0.00 0.00 77 1019.9
20260507123542 11 288 1.6 3.2 0.00 0.00 0.00 77 1020.0
20260507123041 11 298 1.6 3.2 0.00 0.00 0.00 77 1020.0
20260507122543 11 22 1.6 3.2 0.00 0.00 0.00 77 1020.0
20260507122042 11 5 1.6 3.2 0.00 0.00 0.00 77 1020.0
20260507121800 11 78 1.6 3.2 0.00 0.00 0.00 77 1020.0
20260507121043 11 334 1.6 3.2 0.00 0.00 0.00 77 1020.0
20260507120527 11 291 1.6 3.2 0.00 0.00 0.00 77 1020.0
20260507120027 11 10 1.6 3.2 0.00 0.00 0.00 77 1020.1
20260507115527 11 69 1.6 3.2 0.00 0.00 0.00 77 1020.1
20260507115017 11 1 1.6 3.2 0.00 0.00 0.00 76 1020.1
20260507114742 11 290 1.6 3.2 0.00 0.00 0.00 77 1020.2
20260507114011 11 102 1.6 3.2 0.00 0.00 0.00 77 1020.1
20260507113511 11 30 1.6 3.2 0.00 0.00 0.00 77 1020.2
20260507113012 11 336 1.6 3.2 0.00 0.00 0.00 77 1020.2
20260507112512 11 307 1.6 3.2 0.00 0.00 0.00 77 1020.2
20260507112012 11 321 1.6 3.2 0.00 0.00 0.00 78 1020.2
20260507111515 11 322 1.6 3.2 0.00 0.00 0.00 77 1020.2
20260507111016 11 303 1.6 3.2 0.00 0.00 0.00 78 1020.2
20260507110512 11 337 1.6 3.2 0.00 0.00 0.00 78 1020.2
20260507110012 11 0 1.6 3.2 0.00 0.00 0.00 78 1020.2
20260507105512 11 8 1.6 3.2 0.00 0.00 0.00 78 1020.2
20260507105500 11 0 0.0 3.2 0.00 0.00 0.00 78 1020.3
20260507104459 11 31 0.0 3.2 0.00 0.00 0.00 78 1020.3
20260507103958 11 0 1.6 3.2 0.00 0.00 0.00 78 1020.3
20260507103723 11 63 1.6 3.2 0.00 0.00 0.00 78 1020.4
20260507102959 12 335 1.6 3.2 0.00 0.00 0.00 78 1020.4
20260507102459 12 294 1.6 6.4 0.00 0.00 0.00 78 1020.4
20260507102224 12 316 1.6 6.4 0.00 0.00 0.00 78 1020.4
20260507101500 12 328 1.6 4.8 0.00 0.00 0.00 78 1020.5
20260507101210 12 319 1.6 4.8 0.00 0.00 0.00 78 1020.5
20260507100651 12 339 1.6 3.2 0.00 0.00 0.00 78 1020.5
20260507095930 12 330 1.6 4.8 0.00 0.00 0.00 78 1020.5
20260507095431 12 317 1.6 4.8 0.00 0.00 0.00 79 1020.6
20260507094930 12 17 1.6 4.8 0.00 0.00 0.00 79 1020.6
20260507094429 12 327 1.6 4.8 0.00 0.00 0.00 79 1020.6
20260507093930 12 324 1.6 3.2 0.00 0.00 0.00 78 1020.6
20260507093430 12 92 1.6 3.2 0.00 0.00 0.00 78 1020.7
20260507092930 12 346 1.6 3.2 0.00 0.00 0.00 78 1020.7
20260507092430 12 299 0.0 3.2 0.00 0.00 0.00 77 1020.8
20260507092152 12 108 0.0 3.2 0.00 0.00 0.00 77 1020.8
20260507091430 12 100 1.6 3.2 0.00 0.00 0.00 77 1020.8
20260507090930 12 349 1.6 3.2 0.00 0.00 0.00 77 1020.8
20260507090416 12 9 1.6 4.8 0.00 0.00 0.00 77 1020.8
20260507085916 12 311 3.2 4.8 0.00 0.00 0.00 77 1020.9
20260507085417 12 302 1.6 4.8 0.00 0.00 0.00 76 1020.8
20260507084915 12 318 1.6 3.2 0.00 0.00 0.00 76 1020.8
20260507084635 12 337 1.6 3.2 0.00 0.00 0.00 76 1020.8
20260507083914 12 306 1.6 3.2 0.00 0.00 0.00 76 1020.8
20260507083415 12 6 1.6 3.2 0.00 0.00 0.00 76 1020.8
20260507082914 12 312 1.6 3.2 0.00 0.00 0.00 76 1020.9
20260507082415 12 343 1.6 3.2 0.00 0.00 0.00 77 1020.9
20260507081901 12 302 1.6 4.8 0.00 0.00 0.00 77 1020.9
20260507081621 12 351 1.6 4.8 0.00 0.00 0.00 77 1020.9
20260507080902 12 304 1.6 4.8 0.00 0.00 0.00 77 1020.9
20260507080632 12 352 1.6 4.8 0.00 0.00 0.00 77 1020.8
20260507075905 12 313 1.6 4.8 0.00 0.00 0.00 78 1020.9
20260507075406 12 312 1.6 4.8 0.00 0.00 0.00 78 1020.9
20260507074906 12 334 1.6 4.8 0.00 0.00 0.00 79 1020.9
20260507074406 12 307 1.6 3.2 0.00 0.00 0.00 79 1020.9
20260507073906 12 59 1.6 3.2 0.00 0.00 0.00 79 1020.9
20260507073858 12 298 1.6 3.2 0.00 0.00 0.00 79 1020.9
20260507072906 12 337 1.6 3.2 0.00 0.00 0.00 79 1020.8
20260507072406 12 34 1.6 3.2 0.00 0.00 0.00 79 1020.8
20260507071906 12 285 1.6 4.8 0.00 0.00 0.00 79 1020.8
20260507071352 12 350 1.6 4.8 0.00 0.00 0.00 79 1020.8
20260507071118 12 348 1.6 3.2 0.00 0.00 0.00 79 1020.7
20260507070836 12 298 1.6 3.2 0.00 0.00 0.00 79 1020.7
20260507065834 12 275 1.6 3.2 0.00 0.00 0.00 79 1020.7
20260507065334 12 304 1.6 3.2 0.00 0.00 0.00 78 1020.7
20260507064834 12 338 1.6 3.2 0.00 0.00 0.00 79 1020.7
20260507063334 12 97 3.2 4.8 0.00 0.00 0.00 79 1020.8
20260507062834 12 0 3.2 6.4 0.00 0.00 0.00 79 1020.8
20260507062335 12 313 3.2 6.4 0.00 0.00 0.00 79 1020.8
20260507061818 13 301 1.6 4.8 0.00 0.00 0.00 79 1020.8
20260507061320 13 354 1.6 6.4 0.00 0.00 0.00 80 1020.9
20260507060820 13 317 3.2 6.4 0.00 0.00 0.00 80 1020.9
20260507060320 13 325 3.2 4.8 0.00 0.00 0.00 79 1020.8
20260507055819 13 314 1.6 4.8 0.00 0.00 0.00 79 1020.8
20260507055320 13 299 1.6 4.8 0.00 0.00 0.00 80 1020.9
20260507054821 13 341 3.2 6.4 0.00 0.00 0.00 79 1020.9
20260507054320 13 326 3.2 6.4 0.00 0.00 0.00 79 1020.8
20260507053821 13 301 3.2 6.4 0.00 0.00 0.00 80 1020.8
20260507053321 13 298 3.2 6.4 0.00 0.00 0.00 79 1020.8
20260507052805 13 326 1.6 4.8 0.00 0.00 0.00 79 1020.8
20260507052525 13 312 3.2 4.8 0.00 0.00 0.00 79 1020.8
20260507051750 13 331 3.2 4.8 0.00 0.00 0.00 79 1020.8
20260507051249 13 315 3.2 6.4 0.00 0.00 0.00 79 1020.8
20260507050750 13 42 3.2 6.4 0.00 0.00 0.00 79 1020.8
20260507050250 13 298 3.2 6.4 0.00 0.00 0.00 78 1020.8
20260507045749 13 307 3.2 6.4 0.00 0.00 0.00 78 1020.8
20260507045250 13 4 3.2 4.8 0.00 0.00 0.00 78 1020.8
20260507044750 13 332 3.2 6.4 0.00 0.00 0.00 78 1020.8
20260507044250 13 320 3.2 6.4 0.00 0.00 0.00 77 1020.8
20260507043750 13 314 3.2 6.4 0.00 0.00 0.00 77 1020.8
20260507043250 13 359 3.2 4.8 0.00 0.00 0.00 77 1020.8
20260507042738 13 337 3.2 6.4 0.00 0.00 0.00 77 1020.7
20260507042226 13 310 3.2 6.4 0.00 0.00 0.00 77 1020.6
20260507041726 14 294 3.2 6.4 0.00 0.00 0.00 77 1020.6
20260507041446 14 353 3.2 3.2 0.00 0.00 0.00 76 1020.6
20260507040726 14 332 3.2 4.8 0.00 0.00 0.00 76 1020.5
20260507040227 14 357 3.2 6.4 0.00 0.00 0.00 76 1020.5
20260507035726 14 344 4.8 6.4 0.00 0.00 0.00 76 1020.4
20260507035221 14 334 4.8 8.0 0.00 0.00 0.00 76 1020.4
20260507035202 14 311 4.8 8.0 0.00 0.00 0.00 76 1020.3
20260507034210 15 305 3.2 8.0 0.00 0.00 0.00 75 1020.2
20260507033708 15 355 3.2 4.8 0.00 0.00 0.00 75 1020.1
20260507033207 15 313 3.2 6.4 0.00 0.00 0.00 75 1020.1
20260507032707 15 13 3.2 6.4 0.00 0.00 0.00 76 1020.0
20260507032157 15 316 3.2 6.4 0.00 0.00 0.00 75 1020.0
20260507031657 15 305 3.2 6.4 0.00 0.00 0.00 75 1019.9
20260507031157 15 305 3.2 6.4 0.00 0.00 0.00 75 1019.9
20260507030657 15 321 3.2 8.0 0.00 0.00 0.00 75 1019.8
20260507030158 15 334 3.2 8.0 0.00 0.00 0.00 75 1019.7
20260507025657 16 313 3.2 8.0 0.00 0.00 0.00 75 1019.7
20260507025158 16 343 3.2 6.4 0.00 0.00 0.00 74 1019.6
20260507024657 16 348 3.2 6.4 0.00 0.00 0.00 74 1019.5